TimeCST,TemperatureF,Dew PointF,Humidity,Sea Level PressureIn,VisibilityMPH,Wind Direction,Wind SpeedMPH,Gust SpeedMPH,PrecipitationIn,Events,Conditions,WindDirDegrees,DateUTC
12:52 AM,60.1,43.0,53,30.11,10.0,NNW,15.0,-,N/A,,Clear,340,2012-11-23 06:52:00
1:52 AM,57.9,39.0,49,30.14,10.0,NNW,12.7,19.6,N/A,,Clear,330,2012-11-23 07:52:00
2:52 AM,55.9,37.9,51,30.18,10.0,NNW,17.3,-,N/A,,Clear,330,2012-11-23 08:52:00
3:52 AM,54.0,37.9,55,30.21,10.0,NNW,16.1,-,N/A,,Clear,340,2012-11-23 09:52:00
4:52 AM,52.0,36.0,54,30.24,10.0,North,13.8,-,N/A,,Clear,350,2012-11-23 10:52:00
5:52 AM,54.0,36.0,51,30.27,10.0,North,18.4,-,N/A,,Overcast,360,2012-11-23 11:52:00
6:52 AM,53.1,34.0,48,30.32,10.0,North,20.7,26.5,N/A,,Overcast,360,2012-11-23 12:52:00
7:52 AM,52.0,30.9,45,30.35,10.0,North,19.6,24.2,N/A,,Overcast,10,2012-11-23 13:52:00
8:52 AM,53.1,28.0,38,30.40,10.0,NNE,16.1,24.2,N/A,,Partly Cloudy,20,2012-11-23 14:52:00
9:52 AM,55.0,26.1,33,30.42,10.0,NNE,12.7,29.9,N/A,,Partly Cloudy,30,2012-11-23 15:52:00
10:52 AM,57.9,21.0,24,30.43,10.0,NE,17.3,32.2,N/A,,Clear,40,2012-11-23 16:52:00
11:52 AM,59.0,23.0,25,30.42,10.0,NNE,12.7,27.6,N/A,,Clear,30,2012-11-23 17:52:00
12:52 PM,61.0,23.0,23,30.40,10.0,NE,17.3,25.3,N/A,,Clear,40,2012-11-23 18:52:00
1:52 PM,61.0,23.0,23,30.40,10.0,NNE,15.0,24.2,N/A,,Clear,30,2012-11-23 19:52:00
2:52 PM,61.0,23.0,23,30.40,10.0,NE,12.7,23.0,N/A,,Clear,50,2012-11-23 20:52:00
3:52 PM,60.1,21.9,23,30.40,10.0,NNE,13.8,19.6,N/A,,Clear,20,2012-11-23 21:52:00
4:52 PM,59.0,21.0,23,30.41,10.0,NNE,8.1,19.6,N/A,,Clear,20,2012-11-23 22:52:00
5:52 PM,54.0,19.9,26,30.42,10.0,NNE,8.1,-,N/A,,Clear,20,2012-11-23 23:52:00
6:52 PM,51.1,19.9,29,30.43,10.0,NNE,5.8,-,N/A,,Clear,30,2012-11-24 00:52:00
7:52 PM,48.9,19.9,32,30.44,10.0,NE,3.5,-,N/A,,Clear,40,2012-11-24 01:52:00
8:52 PM,43.0,21.9,43,30.45,10.0,Calm,Calm,-,N/A,,Clear,0,2012-11-24 02:52:00
9:52 PM,43.0,21.0,42,30.45,10.0,Calm,Calm,-,N/A,,Clear,0,2012-11-24 03:52:00
10:52 PM,43.0,25.0,49,30.44,10.0,Calm,Calm,-,N/A,,Clear,0,2012-11-24 04:52:00
11:52 PM,39.0,23.0,53,30.44,10.0,East,4.6,-,N/A,,Clear,80,2012-11-24 05:52:00